TimeAST,TemperatureF,Dew PointF,Humidity,Sea Level PressureIn,VisibilityMPH,Wind Direction,Wind SpeedMPH,Gust SpeedMPH,PrecipitationIn,Events,Conditions,WindDirDegrees,DateUTC
12:56 AM,77.0,72.0,84,30.02,10.0,Calm,Calm,-,0.00,Rain,Light Rain,0,2012-12-28 04:56:00
1:56 AM,75.9,71.1,85,30.01,10.0,Calm,Calm,-,0.00,,Scattered Clouds,0,2012-12-28 05:56:00
2:56 AM,75.0,71.1,87,29.99,10.0,Calm,Calm,-,N/A,,Scattered Clouds,0,2012-12-28 06:56:00
3:56 AM,73.9,70.0,87,29.97,10.0,Calm,Calm,-,N/A,,Partly Cloudy,0,2012-12-28 07:56:00
4:56 AM,73.9,70.0,87,29.97,10.0,SE,3.5,-,N/A,,Partly Cloudy,140,2012-12-28 08:56:00
5:56 AM,75.0,70.0,84,29.99,10.0,Calm,Calm,-,N/A,,Scattered Clouds,0,2012-12-28 09:56:00
6:56 AM,75.0,70.0,84,30.00,10.0,Calm,Calm,-,N/A,,Scattered Clouds,0,2012-12-28 10:56:00
7:56 AM,75.9,70.0,82,30.03,10.0,Calm,Calm,-,N/A,,Scattered Clouds,0,2012-12-28 11:56:00
8:56 AM,80.1,71.1,74,30.06,10.0,East,6.9,-,N/A,,Scattered Clouds,100,2012-12-28 12:56:00
9:56 AM,82.0,71.1,69,30.07,10.0,East,12.7,-,N/A,,Scattered Clouds,80,2012-12-28 13:56:00
10:56 AM,84.0,71.1,65,30.06,10.0,East,10.4,-,N/A,,Scattered Clouds,80,2012-12-28 14:56:00
11:56 AM,84.0,70.0,63,30.05,10.0,East,18.4,21.9,N/A,,Scattered Clouds,80,2012-12-28 15:56:00
12:56 PM,84.9,70.0,61,30.02,10.0,ENE,17.3,-,N/A,,Scattered Clouds,70,2012-12-28 16:56:00
1:56 PM,84.0,70.0,63,30.01,10.0,East,16.1,-,N/A,,Scattered Clouds,90,2012-12-28 17:56:00
2:56 PM,84.0,69.1,61,29.99,10.0,East,13.8,-,N/A,,Partly Cloudy,90,2012-12-28 18:56:00
3:56 PM,82.9,69.1,63,29.98,10.0,ENE,17.3,23.0,N/A,,Partly Cloudy,70,2012-12-28 19:56:00
4:56 PM,82.0,70.0,67,29.99,10.0,East,13.8,-,N/A,,Partly Cloudy,80,2012-12-28 20:56:00
5:56 PM,80.1,70.0,71,29.99,10.0,East,11.5,-,N/A,,Partly Cloudy,90,2012-12-28 21:56:00
6:56 PM,79.0,70.0,74,30.00,10.0,East,8.1,-,N/A,,Scattered Clouds,80,2012-12-28 22:56:00
7:56 PM,79.0,71.1,77,30.01,10.0,East,9.2,-,N/A,,Scattered Clouds,90,2012-12-28 23:56:00
8:56 PM,79.0,71.1,77,30.02,10.0,East,15.0,-,N/A,,Scattered Clouds,80,2012-12-29 00:56:00
9:56 PM,78.1,70.0,76,30.03,10.0,East,13.8,-,N/A,,Scattered Clouds,90,2012-12-29 01:56:00
10:56 PM,78.1,71.1,79,30.02,10.0,East,9.2,-,0.00,,Mostly Cloudy,100,2012-12-29 02:56:00
11:56 PM,77.0,72.0,84,30.02,10.0,ESE,5.8,-,0.07,,Mostly Cloudy,110,2012-12-29 03:56:00